Tracking 25953 objects as of 16-Aug-2022
HD Live streaming from Space Station
objects crossing your sky now

STARLINK-4205

Track STARLINK-4205 now!
10-day predictions
STARLINK-4205 is classified as:


NORAD ID: 53174
Int'l Code: 2022-083AU
Perigee: 399.2 km
Apogee: 400.8 km
Inclination: 53.2 °
Period: 92.4 minutes
Semi major axis: 6770 km
RCS: Unknown
Launch date: July 17, 2022
Source: United States (US)
Launch site: AIR FORCE EASTERN TEST RANGE (AFETR)
aabbcc
Your satellite tracking list
Your tracking list is empty




NASA's NSSDC Master Catalog

Two Line Element Set (TLE):
1 53174U 22083AU  22227.58334491 -.01115342  00000-0 -16024-1 0  9990
2 53174  53.2173 263.7408 0001113  69.7472   9.7524 15.58202159  5217
Source of the keplerian elements: AFSPC